User: anonymous   Login
Location: Solon
(41.3849°N, 81.4081°W)
Time: 19:49:27
(UTC-04:00)
Language:

CZ-2C R/B - Orbit

View from above orbital plane
View from above orbital plane
View from above satellite
View from above satellite

Ground track
Ground track

The orbit data is extracted from the following two-line orbital elements,

1 28480U 04046B   15244.97193016 +.00000032 +00000-0 +27719-4 0  9993
2 28480 098.1513 013.4907 0142087 356.3727 109.2238 14.25525491561005
Epoch (UTC): 01 September 2015 23:19:34
Eccentricity: 0.0142087
inclination: 98.1513°
perigee height: 704 km
apogee height: 909 km
right ascension of ascending node: 13.4907°
argument of perigee: 356.3727°
revolutions per day: 14.25525491
mean anomaly at epoch: 109.2238°
orbit number at epoch: 56100

The dashed part of the orbit path shows where the satellite is in the earth's shadow,  

DLR